Flag for Denmark Weather past 2 weeks in Horsens, Denmark

Now
54 °F

Fog.


Feels Like: 50 °F
Forecast: 51 / 59 °F
Wind: 10 mph from Northwest

Location: Billund Lufthavn

Current Time: Sep 5, 2015 at 1:55:13 AM

Latest Report: Sep 5, 2015 at 1:20 AM


Visibility: 3 mi

Pressure: 29.65 "Hg

Humidity: 94%

Dew point: 52 °F

Location of HorsensLocation

Historic Weather in Horsens — Graph

°F

Horsens temperature yesterday

Maximum temperature yesterday: 55 °F (at 9:20 AM)
Minimum temperature yesterday: 50 °F (at 1:50 AM)
Average temperature yesterday: 53 °F

Past Weeks' High & Low Weather Summary

 TemperatureHumidityPressure
High77 °F (Aug 21, 2:50 PM)100% (Aug 26, 7:20 AM)30.30 "Hg (Aug 26, 7:20 AM)
Low45 °F (Aug 29, 5:20 AM)27% (Aug 21, 6:50 PM)29.59 "Hg (Aug 24, 11:20 PM)
Average61 °F79%29.91 "Hg
* Reported Aug 21 12:50 AM — Sep 5 12:20 AM, Horsens, Weather by CustomWeather, © 2015

Note: Actual official high and low records may vary slightly from our data, if they occured in-between our weather recording intervals... More about our weather records

Advertising

Horsens weather history for previous 24 hours

 ConditionsComfort  
Time TempWeatherWind HumidityBarometerVisibility
12:20 AM
Sat, Sep 5
54 °FPartly cloudy.9 mph100%29.65 "Hg4 mi
11:20 PM
Fri, Sep 4
55 °FSprinkles. Partly cloudy.6 mph94%29.65 "Hg4 mi
10:50 PM55 °FPartly cloudy.2 mph100%29.65 "HgN/A
10:20 PM55 °FPassing clouds.3 mph100%29.65 "HgN/A
9:50 PM55 °FPassing clouds.8 mph100%29.65 "HgN/A
9:20 PM55 °FSprinkles. Passing clouds.8 mph100%29.65 "Hg5 mi
8:50 PM55 °FSprinkles. Partly sunny.8 mph100%29.65 "Hg3 mi
8:20 PM55 °FSprinkles. Partly sunny.9 mph94%29.65 "Hg2 mi
7:50 PM55 °FRain. Partly sunny.9 mph94%29.65 "Hg2 mi
7:20 PM55 °FRain. Partly sunny.12 mph94%29.68 "Hg2 mi
6:50 PM54 °FRain. Broken clouds.12 mph100%29.68 "Hg2 mi
6:20 PM54 °FLight rain. Broken clouds.12 mph100%29.71 "Hg2 mi
5:50 PM54 °FRain. Broken clouds.9 mph100%29.71 "Hg2 mi
5:20 PM54 °FThunderstorms. Broken clouds.10 mph100%29.74 "Hg2 mi
4:50 PM54 °FRain. Fog.14 mph100%29.74 "Hg2 mi
4:20 PM54 °FRain. Fog.10 mph94%29.74 "Hg2 mi
3:20 PM54 °FThunderstorms. Fog.7 mph94%29.77 "Hg3 mi
2:54 PM54 °FThunderstorms. Fog.7 mph94%29.77 "Hg2 mi
2:20 PM54 °FRain showers. Fog.7 mph94%29.77 "Hg2 mi
1:50 PM54 °FRain showers. Fog.8 mph94%29.77 "Hg2 mi
1:20 PM54 °FRain showers. Fog.7 mph94%29.77 "Hg2 mi
12:50 PM54 °FRain showers. Fog.5 mph94%29.77 "Hg2 mi
12:20 PM54 °FDrizzle. Fog.5 mph94%29.80 "Hg3 mi
11:20 AM55 °FSprinkles. Partly sunny.7 mph88%29.80 "HgN/A
10:50 AM55 °FSprinkles. Broken clouds.8 mph82%29.80 "HgN/A
10:20 AM55 °FBroken clouds.10 mph82%29.80 "HgN/A
9:50 AM55 °FBroken clouds.12 mph82%29.80 "HgN/A
9:20 AM55 °FBroken clouds.10 mph82%29.80 "HgN/A
8:50 AM54 °FBroken clouds.9 mph88%29.80 "HgN/A
8:20 AM54 °FBroken clouds.9 mph88%29.80 "HgN/A
7:50 AM52 °FPartly sunny.8 mph94%29.80 "Hg4 mi
7:20 AM52 °FPassing clouds.6 mph94%29.80 "Hg4 mi
6:50 AM50 °FFog.6 mph94%29.80 "Hg3 mi
6:20 AM50 °FPassing clouds.6 mph94%29.80 "Hg4 mi
5:50 AM50 °FPassing clouds.7 mph94%29.80 "HgN/A
5:20 AM50 °FPassing clouds.6 mph94%29.80 "HgN/A
4:50 AM50 °FPassing clouds.7 mph94%29.83 "Hg4 mi
4:20 AM50 °FPassing clouds.6 mph94%29.83 "Hg5 mi
3:50 AM50 °FPassing clouds.6 mph94%29.83 "HgN/A
3:20 AM50 °FThunderstorms. Passing clouds.6 mph94%29.83 "HgN/A
2:50 AM50 °FPassing clouds.7 mph94%29.83 "HgN/A
2:20 AM50 °FPassing clouds.7 mph94%29.83 "HgN/A
1:50 AM50 °FCool.7 mph94%29.83 "HgN/A
1:20 AM52 °FCool.7 mph88%29.83 "HgN/A
Weather by CustomWeather, © 2015

See weather overviewHow to use our weather pages